KD2GO Weather Reports


Display with metric or nautical units.
time (UTC)temp
F
wind
direction
speed
MPH
gust
MPH
rain 1hr
in
rain 24hr
in
rain mn
in
humidity
%
barometer
mb
20260507163000 56 281 3.0 9.0 0.00 0.41 0.08 47 1010.1
20260507161501 56 79 2.0 6.0 0.00 0.41 0.08 48 1010.1
20260507160000 56 359 3.0 9.0 0.00 0.45 0.08 53 1010.4
20260507150002 53 308 4.0 10.0 0.00 0.45 0.08 58 1011.1
20260507143000 52 274 5.0 10.0 0.00 0.47 0.08 62 1011.4
20260507141501 52 272 3.0 9.0 0.00 0.47 0.08 64 1011.4
20260507140000 52 271 3.0 15.0 0.00 0.47 0.08 64 1011.3
20260507134501 51 148 3.0 11.0 0.00 0.47 0.08 63 1011.5
20260507132958 51 338 2.0 12.0 0.00 0.47 0.08 67 1011.5
20260507131459 50 271 4.0 11.0 0.00 0.47 0.08 70 1011.3
20260507125958 50 291 3.0 8.0 0.00 0.47 0.08 74 1011.3
20260507124458 49 347 4.0 10.0 0.00 0.47 0.08 75 1011.2
20260507121457 48 352 2.0 7.0 0.00 0.47 0.08 83 1011.1
20260507120001 47 297 2.0 6.0 0.00 0.47 0.08 85 1011.2
20260507114500 47 275 2.0 6.0 0.00 0.47 0.08 84 1011.1
20260507113000 47 246 1.0 3.0 0.00 0.47 0.08 83 1011.0
20260507105958 46 330 2.0 7.0 0.00 0.47 0.08 83 1010.5
20260507104458 46 267 2.0 8.0 0.00 0.47 0.08 80 1010.4
20260507102958 46 273 1.0 5.0 0.00 0.47 0.08 75 1010.1
20260507101459 46 326 1.0 4.0 0.00 0.47 0.08 70 1010.0
20260507100001 46 244 1.0 3.0 0.00 0.47 0.08 66 1009.6
20260507094459 46 308 1.0 4.0 0.00 0.47 0.08 63 1009.7
20260507092959 46 304 0.0 1.0 0.00 0.47 0.08 62 1009.4
20260507091500 46 295 0.0 2.0 0.00 0.47 0.08 62 1009.3
20260507085958 46 295 0.0 3.0 0.00 0.47 0.08 62 1009.4
20260507084500 46 281 0.0 1.0 0.00 0.47 0.08 64 1009.5
20260507082959 47 281 0.0 2.0 0.00 0.47 0.08 65 1009.6
20260507081458 47 281 1.0 4.0 0.00 0.47 0.08 66 1009.7
20260507075958 47 281 1.0 3.0 0.00 0.47 0.08 69 1009.7
20260507074458 47 276 2.0 4.0 0.00 0.47 0.08 69 1009.6
20260507072959 47 207 1.0 3.0 0.02 0.47 0.08 70 1009.8
20260507071458 47 265 1.0 5.0 0.03 0.47 0.08 72 1010.0
20260507065959 47 245 1.0 3.0 0.05 0.47 0.08 74 1010.2
20260507064459 47 266 1.0 4.0 0.08 0.47 0.08 77 1010.0
20260507061458 48 276 1.0 6.0 0.05 0.44 0.05 83 1009.7
20260507055959 48 285 1.0 7.0 0.03 0.42 0.03 85 1010.0
20260507052958 50 279 2.0 9.0 0.00 0.39 0.00 83 1009.8
20260507051458 50 269 2.0 5.0 0.00 0.39 0.00 83 1009.4
20260507050000 50 272 2.0 5.0 0.00 0.39 0.00 83 1009.2
20260507044500 50 257 2.0 6.0 0.00 0.39 0.00 83 1008.8
20260507043000 51 266 1.0 4.0 0.00 0.39 0.00 83 1009.0
20260507040006 51 261 3.0 9.0 0.00 0.39 0.00 84 1009.2
20260507034503 51 285 3.0 8.0 0.00 0.39 0.39 85 1009.3
20260507033003 51 240 2.0 7.0 0.00 0.39 0.39 84 1008.9
20260507031503 51 251 3.0 6.0 0.00 0.39 0.39 84 1008.9
20260507030004 52 334 2.0 7.0 0.00 0.39 0.39 82 1008.9
20260507024502 53 67 2.0 5.0 0.00 0.39 0.39 77 1009.1
20260507023003 53 295 2.0 7.0 0.00 0.39 0.39 77 1009.0
20260507021503 53 278 3.0 7.0 0.00 0.39 0.39 75 1009.1
20260507014502 55 275 1.0 8.0 0.01 0.39 0.39 70 1008.9
20260507013001 57 236 2.0 8.0 0.02 0.39 0.39 68 1008.7
20260507011501 60 6 4.0 9.0 0.07 0.39 0.39 45 1008.5
20260507010002 60 294 4.0 7.0 0.24 0.39 0.39 47 1008.3
20260507004501 60 308 3.0 8.0 0.23 0.38 0.38 51 1008.0
20260507001501 61 297 4.0 13.0 0.17 0.32 0.32 54 1007.8
20260506233001 62 295 0.0 1.0 0.00 0.15 0.15 56 1007.3
20260506231502 62 295 1.0 2.0 0.00 0.15 0.15 56 1007.2
20260506230002 62 296 1.0 4.0 0.00 0.15 0.15 56 1007.3
20260506224500 62 296 2.0 7.0 0.00 0.15 0.15 55 1007.1
20260506223001 62 360 2.0 4.0 0.00 0.15 0.15 49 1007.0
20260506221501 62 310 2.0 5.0 0.00 0.15 0.15 45 1007.2
20260506220001 62 291 2.0 6.0 0.00 0.15 0.15 39 1007.1
20260506214501 61 284 2.0 6.0 0.00 0.15 0.15 34 1006.9
20260506213002 60 278 2.0 5.0 0.00 0.15 0.15 37 1006.7
20260506211502 60 290 2.0 7.0 0.00 0.15 0.15 37 1006.7
20260506210002 60 277 4.0 9.0 0.00 0.15 0.15 37 1006.7
20260506203001 60 329 5.0 12.0 0.00 0.15 0.15 35 1006.5
20260506201501 60 284 3.0 7.0 0.00 0.15 0.15 35 1006.3
20260506200002 59 285 2.0 6.0 0.00 0.15 0.15 35 1006.6
20260506194500 59 338 3.0 8.0 0.00 0.15 0.15 37 1006.8
20260506193000 59 359 3.0 6.0 0.01 0.15 0.15 38 1006.9
20260506191500 59 301 4.0 9.0 0.02 0.15 0.15 40 1007.1
20260506185959 59 225 4.0 9.0 0.02 0.15 0.15 43 1007.2
20260506184500 59 293 4.0 10.0 0.02 0.15 0.15 47 1007.3
20260506183000 59 333 3.0 10.0 0.02 0.14 0.14 50 1007.3
20260506180000 59 321 4.0 10.0 0.02 0.13 0.13 55 1007.4
20260506174500 59 7 4.0 12.0 0.03 0.13 0.13 56 1007.5
20260506173001 59 259 3.0 7.0 0.03 0.12 0.12 56 1007.6
20260506171500 59 301 4.0 11.0 0.03 0.11 0.11 56 1007.8
20260506170000 59 351 2.0 8.0 0.05 0.11 0.11 58 1007.9